Weather in Taskala

Kazakhstan     51°06′22″N   50°17′14″E
temp.,
°C
wind,
m/s
gust,
m/s
humid.,
%
clouds,
%
prec.,
mm/h
press.,
hPa
HPBL,
m
18 april, sun
sun1823:00+16sse114924 0.0 101711
02:00+12wnw71376100 0.1 1018361
05:00+12wnw3575100 0.6 1017168
08:00+12wsw347695 0.0 1017259
11:00+15wsw336027 0.0 10171079
14:00+18wsw544794 0.1 10161880
17:00+18wnw4446100 0.2 10161835
20:00+16w3554100 0.0 1016197
19 april, mon
mon1923:00+14wnw346798 0.1 1016161
02:00+13wnw237573 0.2 101687
05:00+10ne239041 0.3 101762
08:00+10ene5872100 0.0 1017306
11:00+13e5561100 0.0 1018586
14:00+14e4560100 0.0 1018813
17:00+15ene996198 0.3 10181173
20:00+9e91269100 0.1 1020603
20 april, tue
tue2023:00+6e91375100 0.1 1022562
02:00+5e9137178 0.0 1023632
05:00+5e91468100 0.0 1024745
08:00+4e10156699 0.0 1025672
11:00+5e10146886 0.0 1026758
14:00+8ese10135257 0.0 10261036
17:00+11ese101246100 0.0 10251368
20:00+9ese81349100 0.0 10251198
21 april, wed
wed2123:00+8ese91444100 0.0 1026939
02:00+6ese101742100 0.0 1025684
05:00+4ese9164699 0.0 1027616
08:00+4ese91646100 0.0 1027583
11:00+7se91338100 0.0 1028782
14:00+10se91135100 0.0 1027955
17:00+11se81239100 0.1 10261117
20:00+9s51051100 0.5 1027945
22 april, thu
thu2223:00+7sw2379100 0.9 1029156
02:00+7ese4974100 0.4 1029540
05:00+6se61177100 1.0 1029684
08:00+6se41172100 0.3 1030500
11:00+7se51054100 0.4 1030501
14:00+8se5951100 0.0 1030537
17:00+8s1554100 0.1 1030358
20:00+7nw4568100 0.1 1029153